Flag for U.S.A. Weather past 2 weeks in Sheboygan, Wisconsin, U.S.A.

Now
30 °F

Ice fog.


Feels Like: 30 °F
Forecast: 43 / 54 °F
Wind: No wind

Location: Sheboygan County Memorial Airport

Current Time: Oct 23, 2014 at 4:28:34 AM

Latest Report: Oct 23, 2014 at 3:53 AM


Visibility: 0 mi

Pressure: 30.23 "Hg

Humidity: 92%

Dew point: 28 °F

Location of SheboyganLocation

Historic Weather in Sheboygan — Graph

°F

Sheboygan temperature yesterday

Maximum temperature yesterday: 53 °F (at 1:53 PM)
Minimum temperature yesterday: 28 °F (at 4:53 AM)
Average temperature yesterday: 38 °F

Past Weeks' High & Low Weather Summary

 TemperatureHumidityPressure
High62 °F (Oct 14, 12:53 AM)100% (Oct 13, 7:53 AM)30.40 "Hg (Oct 13, 7:53 AM)
Low28 °F (Oct 22, 4:53 AM)36% (Oct 8, 1:53 PM)29.48 "Hg (Oct 17, 4:53 AM)
Average48 °F82%29.92 "Hg
* Reported Oct 8 2:53 AM — Oct 23 2:53 AM, Sheboygan, Weather by CustomWeather, © 2014

Note: Actual official high and low records may vary slightly from our data, if they occured in-between our weather recording intervals... More about our weather records

Advertising

Sheboygan weather history for previous 24 hours

 ConditionsComfort  
Time TempWeatherWind HumidityBarometerVisibility
2:53 AM
Oct 23
30 °FIce fog.No wind92%30.23 "Hg1 mi
1:53 AM29 °FIce fog.No wind100%30.25 "Hg0 mi
12:53 AM32 °FIce fog.No wind96%30.26 "Hg1 mi
12:02 AM32 °FIce fog.No wind96%30.25 "Hg6 mi
11:53 PM
Oct 22
32 °FIce fog.No wind96%30.27 "Hg2 mi
11:01 PM31 °FIce fog.No wind96%30.27 "Hg2 mi
10:02 PM31 °FIce fog.No wind96%30.27 "Hg2 mi
9:53 PM32 °FIce fog.3 mph96%30.29 "Hg4 mi
8:53 PM35 °FClear.No wind88%30.29 "Hg10 mi
7:53 PM39 °FClear.No wind86%30.29 "Hg10 mi
6:53 PM42 °FSunny.3 mph82%30.30 "Hg10 mi
5:53 PM45 °FSunny.6 mph74%30.30 "Hg10 mi
4:53 PM48 °FSunny.8 mph66%30.31 "Hg10 mi
3:53 PM50 °FSunny.8 mph63%30.32 "Hg10 mi
2:53 PM52 °FSunny.9 mph59%30.33 "Hg10 mi
1:53 PM53 °FSunny.8 mph55%30.35 "Hg10 mi
12:53 PM51 °FSunny.5 mph56%30.37 "Hg10 mi
11:53 AM50 °FScattered clouds.3 mph61%30.40 "Hg10 mi
10:53 AM48 °FOvercast.6 mph71%30.40 "Hg10 mi
9:53 AM45 °FOvercast.No wind86%30.40 "Hg10 mi
8:53 AM39 °FOvercast.No wind89%30.40 "Hg10 mi
7:53 AM32 °FOvercast.No wind96%30.39 "Hg10 mi
6:53 AM28 °FClear.5 mph93%30.38 "Hg10 mi
5:53 AM29 °FPassing clouds.3 mph89%30.36 "Hg10 mi
4:53 AM28 °FClear.3 mph96%30.34 "Hg10 mi
Weather by CustomWeather, © 2014

See weather overviewHow to use our weather pages